Home > Weather > Roskilde > Past weeks

Flag for Denmark Past Weather in Roskilde, Denmark — Yesterday and Last 2 Weeks

Now
68 °F

Mild.


Feels Like: 68 °F
Forecast: 60 / 76 °F
Wind: 5 mph from Southeast

Location: Koebenhavn / Roskilde

Current Time: Jul 24, 2016 at 8:57:28 AM

Latest Report: Jul 24, 2016 at 8:20 AM


Visibility: N/A

Pressure: 30.12 "Hg

Humidity: 78%

Dew Point: 61 °F

Location of RoskildeLocation

Past Weather in Roskilde — Graph

°F

Roskilde Temperature Yesterday

Maximum temperature yesterday: 79 °F (at 11:20 AM)
Minimum temperature yesterday: 61 °F (at 4:20 AM)
Average temperature yesterday: 71 °F

High & Low Weather Summary for the Past Weeks

 TemperatureHumidityPressure
High81 °F (Jul 22, 4:50 PM)100% (Jul 9, 7:20 AM)30.15 "Hg (Jul 9, 7:20 AM)
Low48 °F (Jul 14, 3:20 AM)36% (Jul 22, 1:50 PM)29.62 "Hg (Jul 11, 3:50 AM)
Average63 °F79%29.96 "Hg
* Reported Jul 9 7:20 AM — Jul 24 7:50 AM, Roskilde, Weather by CustomWeather, © 2016

Note: Actual official high and low records may vary slightly from our data, if they occured in-between our weather recording intervals... More about our weather records

Advertising

Roskilde Weather History for the Previous 24 Hours

Scroll right to see more
 ConditionsComfort  
Time TempWeatherWind HumidityBarometerVisibility
7:50 AM
Sun, Jul 24
66 °FMild.2 mph83%30.12 "HgN/A
7:20 AM66 °FPassing clouds.2 mph83%30.12 "HgN/A
6:50 AM64 °FPassing clouds.2 mph88%30.12 "HgN/A
6:20 AM63 °FPassing clouds.1 mph88%30.12 "HgN/A
5:50 AM61 °FPassing clouds.No wind88%30.15 "HgN/A
5:20 AM61 °FPassing clouds.1 mph88%30.12 "HgN/A
4:50 AM63 °FPassing clouds.No wind83%30.15 "HgN/A
4:20 AM61 °FPartly cloudy.1 mph94%30.15 "HgN/A
3:50 AM63 °FPartly cloudy.No wind88%30.15 "HgN/A
3:20 AM63 °FPartly cloudy.1 mph88%30.15 "HgN/A
2:50 AM63 °FPassing clouds.1 mph88%30.15 "HgN/A
2:20 AM63 °FPassing clouds.No wind88%30.15 "HgN/A
1:50 AM63 °FPassing clouds.1 mph88%30.15 "HgN/A
1:20 AM63 °FPassing clouds.5 mph83%30.15 "HgN/A
12:50 AM63 °FPassing clouds.3 mph83%30.15 "HgN/A
12:20 AM63 °FPassing clouds.5 mph83%30.15 "HgN/A
11:50 PM
Sat, Jul 23
64 °FPassing clouds.3 mph78%30.12 "HgN/A
11:20 PM64 °FPassing clouds.3 mph78%30.12 "HgN/A
10:50 PM64 °FPassing clouds.3 mph78%30.12 "Hg4 mi
10:20 PM64 °FMild.3 mph83%30.15 "Hg4 mi
10:08 PM66 °FSunny.2 mph78%30.15 "Hg10 mi
9:50 PM66 °FPassing clouds.2 mph78%30.12 "HgN/A
9:20 PM68 °FPassing clouds.3 mph73%30.12 "HgN/A
8:50 PM68 °FMild.6 mph78%30.12 "HgN/A
8:20 PM70 °FMild.6 mph69%30.12 "HgN/A
7:50 PM72 °FMild.7 mph65%30.12 "HgN/A
7:20 PM72 °FMild.7 mph69%30.12 "HgN/A
6:50 PM72 °FMild.8 mph65%30.12 "HgN/A
6:20 PM75 °FMild.9 mph54%30.12 "HgN/A
5:50 PM77 °FWarm.8 mph51%30.12 "HgN/A
5:20 PM77 °FPassing clouds.8 mph51%30.12 "HgN/A
4:50 PM77 °FPassing clouds.8 mph54%30.12 "HgN/A
4:20 PM77 °FPassing clouds.9 mph57%30.12 "HgN/A
3:50 PM77 °FPartly sunny.8 mph57%30.12 "HgN/A
3:20 PM79 °FScattered clouds.6 mph51%30.12 "HgN/A
2:50 PM79 °FPassing clouds.No wind51%30.12 "HgN/A
2:20 PM79 °FPassing clouds.6 mph54%30.12 "HgN/A
1:50 PM77 °FWarm.8 mph57%30.12 "HgN/A
1:20 PM79 °FWarm.7 mph51%30.12 "HgN/A
12:50 PM79 °FWarm.1 mph48%30.12 "HgN/A
12:20 PM79 °FWarm.3 mph51%30.12 "HgN/A
11:50 AM79 °FWarm.5 mph51%30.12 "HgN/A
11:20 AM79 °FWarm.6 mph48%30.12 "HgN/A
10:50 AM77 °FWarm.6 mph54%30.12 "HgN/A
10:20 AM75 °FMild.7 mph57%30.12 "HgN/A
9:50 AM75 °FMild.6 mph54%30.12 "HgN/A
9:20 AM75 °FPassing clouds.7 mph57%30.12 "HgN/A
8:50 AM72 °FPassing clouds.6 mph61%30.12 "HgN/A
8:20 AM70 °FPartly sunny.6 mph69%30.12 "HgN/A
Weather by CustomWeather, © 2016

See weather overviewHow to use our weather pages